Regional Weather Roundup
Issued by NWS

Home | Current Version | Previous Version | Text Only | Print | Product List | Glossary On
Versions: 1 2 3 4 5 6 7 8 9 10 11 12 13 14 15 16 17 18 19 20 21 22 23 24 25 26 27
000
ASUS45 KPSR 231610
RWRAZ

ARIZONA HOURLY REGIONAL WEATHER ROUNDUP
NATIONAL WEATHER SERVICE PHOENIX AZ
900 AM MST MON JAN 23 2017

NOTE: FAIR INDICATES FEW OR NO CLOUDS BELOW 12,000 FEET WITH NO
SIGNIFICANT WEATHER AND/OR OBSTRUCTIONS TO VISIBILITY.

AZZ001>003-036-231700-
NORTHWEST ARIZONA

CITY           SKY/WX    TMP DP  RH WIND       PRES   REMARKS
BULLHEAD CITY  MOSUNNY   55  46  71 S20       29.80S
KINGMAN        CLOUDY    47  35  63 S33G45    29.76F
$$

AZZ004>008-015-016-018-231700-
NORTH CENTRAL ARIZONA

CITY           SKY/WX    TMP DP  RH WIND       PRES   REMARKS
GRAND CANYON   LGT SNOW  32  32 100 SW20G35   29.76S VSB 3/4 WCI  20
WILLIAMS       LGT SNOW  32  32 100 S24G38    29.79R VSB 3/4 WCI  19
PRESCOTT       LGT RAIN  37  35  92 SW16      29.86R FOG     WCI  28
FLAGSTAFF      SNOW      29  29 100 S21G30    29.78F VSB 1/2 WCI  16
PAYSON         CLOUDY    39  30  70 S12G23    29.94S WCI  32
PAGE           PTSUNNY   44  30  57 S20G26    29.67F
$$

AZZ009>014-017-231700-
NORTHEAST ARIZONA

CITY           SKY/WX    TMP DP  RH WIND       PRES   REMARKS
WINSLOW        MOSUNNY   43  31  62 S24G33    29.84S
SAINT JOHNS    SUNNY     47  30  51 SW18G28   29.87F
SHOW LOW       MOSUNNY   36  23  60 S26       29.92F WCI  23
$$

AZZ023-231700-
GREATER PHOENIX AREA

CITY           SKY/WX    TMP DP  RH WIND       PRES   REMARKS
PHOENIX        CLOUDY    55  36  48 VRB3      29.89R
BUCKEYE        CLOUDY    50  48  93 SE5       29.90F
GLENDALE       PTSUNNY   52  41  66 CALM      29.91R
LUKE AFB       PTSUNNY   54  39  58 E3        29.89R
DEER VALLEY    CLOUDY    54  40  59 VRB6      29.91R
SCOTTSDALE     CLOUDY    55  36  48 SE5       29.92R
MESA-FALCON    PTSUNNY  N/A N/A N/A SE12G17   29.88R
MESA-GATEWAY   CLOUDY    52  39  62 SE7       29.92S
CHANDLER       CLOUDY    57  34  41 SE16      29.91S
$$

AZZ027-028-231700-
SOUTHWEST MARICOPA COUNTY AND PINAL COUNTY

CITY           SKY/WX    TMP DP  RH WIND       PRES   REMARKS
CASA GRANDE    CLOUDY    52  37  56 S5        29.94R
GILA BEND      CLOUDY    57  44  61 S9        29.89S
$$

AZZ503-504-507>509-231700-
SOUTHEAST ARIZONA

CITY           SKY/WX    TMP DP  RH WIND       PRES   REMARKS
TUCSON         SUNNY     57  25  29 SE10      29.99R
DAVIS-MONTHAN  SUNNY     53  30  41 E6        29.98S
RYAN FIELD     SUNNY     57  30  35 E5        29.98R
NOGALES        MOSUNNY   54  23  30 SE10      30.02F
SIERRA VISTA   MOSUNNY   52  25  35 VRB3      30.05S
DOUGLAS        MOSUNNY   48  35  60 SE7       30.07R
SAFFORD        SUNNY     44  35  70 CALM      29.98F
$$

AZZ020-021-025-026-031-231700-
SOUTHWEST ARIZONA

CITY           SKY/WX    TMP DP  RH WIND       PRES   REMARKS
YUMA           PTSUNNY   58  51  78 S5        29.90R
$$

CAZ031-033-041-043-047-048-061-231700-
SOUTHERN CALIFORNIA

CITY           SKY/WX    TMP DP  RH WIND       PRES   REMARKS
DOWNTOWN L.A.  RAIN      51  47  86 NW3       29.89R FOG
L.A. AIRPORT   LGT RAIN  50  43  77 SW15      29.89R
SAN DIEGO      LGT RAIN  56  46  69 SW18      29.98R
BURBANK        PTSUNNY   48  42  80 NE3       29.87S
ONTARIO        PTSUNNY   46  44  93 W7        29.89R
PALM SPRINGS   CLOUDY    51  44  77 CALM      29.88S
EL CENTRO NAS  MOSUNNY   58  41  53 W28       29.92R
IMPERIAL       SUNNY     58  43  57 CALM      29.90R
BLYTHE         SUNNY     59  44  57 SW25      29.85F
NEEDLES        MOSUNNY   57  46  66 SW15      29.82R
$$

NVZ020-UTZ003-231700-
SOUTHERN NEVADA-UTAH

CITY           SKY/WX    TMP DP  RH WIND       PRES   REMARKS
LAS VEGAS      MOSUNNY   48  31  51 S17G25    29.73R
SALT LAKE CITY CLOUDY    40  31  70 SE13G24   29.48F WCI  32
$$

NMZ009-TXZ055-231700-
NEW MEXICO-WEST TEXAS

CITY           SKY/WX    TMP DP  RH WIND       PRES   REMARKS
ALBUQUERQUE    MOSUNNY   37  29  72 S6        29.97S WCI  32
EL PASO        MOSUNNY   45  27  49 SE7       30.05R
$$


........................KEY........................
SKY/WX - SKY CONDITION/WEATHER
TMP    - TEMPERATURE IN FAHRENHEIT
DP     - DEW POINT IN FAHRENHEIT
RH     - RELATIVE HUMIDITY IN PERCENT
WIND   - DIRECTION AND SPEED IN MILES PER HOUR (MPH)
VRB    - VARIABLE WIND DIRECTION
PRES   - MEAN SEA LEVEL PRESSURE IN INCHES OF MERCURY
         F - FALLING PRESSURE   R - RISING PRESSURE
         S - STEADY PRESSURE
VSB    - VISIBILITY IN MILES
HX     - HEAT INDEX IN FAHRENHEIT
WCI    - WIND CHILL INDEX IN FAHRENHEIT
TC     - TEMPERATURE IN CELSIUS WHICH IS ALSO KNOWN AS
         TEMPERATURE IN CENTIGRADE
AFB    - AIR FORCE BASE
         LUKE AFB IS LUKE AIR FORCE BASE
         DAVIS-MONTHAN IS DAVIS-MONTHAN AIR FORCE BASE
NAS    - NAVAL AIR STATION
         EL CENTRO NAS IS EL CENTRO NAVAL AIR STATION
N/A    - NOT AVAILABLE





USA.gov is the U.S. government's official web portal to all federal, state and local government web resources and services.